Regional Weather Roundup
Issued by NWS

Home | Current Version | Previous Version | Graphics & Text | Print | Product List | Glossary Off
Versions: 1 2 3 4 5 6 7 8 9 10 11 12 13 14 15 16 17 18 19 20 21 22 23 24 25 26 27 28 29 30 31 32 33 34 35 36 37 38 39 40 41 42 43 44 45 46 47 48 49 50

000
ASUS43 KMPX 251210
RWRMN
WEATHER ROUNDUP FOR MINNESOTA
NATIONAL WEATHER SERVICE TWIN CITIES/CHANHASSEN MN
700 AM CDT SUN SEP 25 2016


NOTE: "FAIR" INDICATES FEW OR NO CLOUDS BELOW 12,000 FEET WITH NO
SIGNIFICANT WEATHER AND/OR OBSTRUCTIONS TO VISIBILITY. N/A MEANS
CURRENT SKY AND/OR WEATHER CONDITIONS ARE NOT AVAILABLE.

MNZ060>063-068>070-251300-
   Twin Cities Metro

CITY           SKY/WX    TMP DP  RH WIND       PRES   REMARKS
TWIN CITIES    LGT RAIN  69  66  90 S14       29.87F FOG
6HR MIN TEMP:  68; 6HR MAX TEMP:  69; 6HR PCP:  0.03;

ST PAUL        LGT RAIN  67  66  97 SE12      29.88F FOG
CRYSTAL        RAIN      64  60  87 W12G22    29.87S FOG
BLAINE         CLOUDY    70  70 100 S12       29.87F
LAKEVILLE      LGT RAIN  66  66 100 S7        29.88F
EDEN PRAIRIE   LGT RAIN  63  61  93 SW7       29.88R FOG
6HR MIN TEMP:  63; 6HR MAX TEMP:  70; 6HR PCP:  0.07;

LAKEVILLE      LGT RAIN  66  66 100 S7        29.88F
SOUTH ST PAUL  LGT RAIN  68  67  96 S7        29.88F
LAKE ELMO      RAIN      68  66  94 SE7       29.89F
$$
MNZ001>005-007-008-013>017-022>024-027-028-251300-
   Northwest Minnesota

CITY           SKY/WX    TMP DP  RH WIND       PRES   REMARKS
BEMIDJI        PTCLDY    64  63  98 S7        29.75F
HALLOCK        CLEAR     59  55  88 S12       29.66F
ROSEAU         CLEAR     64  57  77 S8        29.69F
WARROAD        MOCLDY    63  61  94 S8        29.71F
THIEF RVR FALL PTCLDY    56  51  84 SW16G24   29.73S
CROOKSTON      CLEAR     54  52  94 S10       29.73S
FOSSTON        PTCLDY    55  52  88 S16       29.75F
DETROIT LAKES  CLEAR     54  48  82 SW12      29.79F
MOORHEAD       CLOUDY    54  48  82 S9        29.77F
PARK RAPIDS    CLOUDY    62  56  80 SW9       29.78F
MAHNOMEN       FAIR      53  50  89 S8        29.75F
$$
MNZ006-009>011-018-025>026-251300-
   North Central Minnesota

CITY           SKY/WX    TMP DP  RH WIND       PRES   REMARKS
BAUDETTE       LGT RAIN  63  62  97 SE9       29.73F
FLAG ISLAND    MOCLDY    63  61  94 SE12      29.69F
INTL FALLS     LGT RAIN  62  61  96 SE8       29.77F
6HR MIN TEMP:  62; 6HR MAX TEMP:  64; 6HR PCP:  0.25;

WASKISH        LGT RAIN  64  63  94 SE5       29.75S
BIG FORK       HVY RAIN  63  61  94 SE8       29.79S
LONGVILLE      DRIZZLE   64  64 100 S5        29.78F
GRAND RAPIDS   LGT RAIN  64  63  96 S12       29.81F
ORR            RAIN      61  57  88 SE8       29.79F
COOK           RAIN      63  61  94 SE8       29.83F
WALKER         CLOUDY    64  63  95 S6        29.77F
$$
MNZ012-019>021-037-251300-
   Northeast Minnesota

CITY           SKY/WX    TMP DP  RH WIND       PRES   REMARKS
DULUTH         LGT RAIN  60  60 100 SE12      29.88F FOG
6HR MIN TEMP:  60; 6HR MAX TEMP:  61; 6HR PCP:  0.14;

ELY            LGT RAIN  59  57  94 SE12      29.87F
HIBBING        LGT RAIN  61  60  97 SE10      29.82F FOG
EVELETH        CLOUDY    61  59  96 SE12G17   29.86F
DULUTH HARBOR  LGT RAIN  61  59  94 CALM      29.88F
TWO HARBORS    LGT RAIN  63  57  82 E8        29.89F
SILVER BAY     DRIZZLE   61  57  88 E7        29.91F
GRAND MARAIS     N/A     60  58  92 NE3       29.95F
G MARAIS ARPRT CLOUDY    55  52  88 SE3       29.98F
$$
MNZ029>031-032-039>041-046>048-054>057-064-251300-
   West Central Minnesota

CITY           SKY/WX    TMP DP  RH WIND       PRES   REMARKS
FERGUS FALLS   CLEAR     54  48  82 S12       29.83S
MORRIS         CLOUDY    52  48  87 S8        29.84F
ALEXANDRIA     PTCLDY    56  49  77 SW13      29.85F
ELBOW LAKE     FAIR      51  48  89 S10       29.83F
GLENWOOD       MOCLDY    55  48  76 SW9       29.86S
BENSON         CLOUDY    55  46  71 W7        29.87F
MADISON          N/A     55  52  88 SW12      29.88S
WILLMAR        FAIR      57  52  82 W8        29.90S
$$
MNZ033>034-036-042>043-049>051-058-059-251300-
   Central Minnesota

CITY           SKY/WX    TMP DP  RH WIND       PRES   REMARKS
ST CLOUD       LGT RAIN  66  66 100 SW10      29.85S
6HR MIN TEMP:  66; 6HR MAX TEMP:  67; 6HR PCP:  0.27;

SAUK CENTRE    PTSUNNY   56  51  84 SW8       29.86S
PAYNESVILLE    CLOUDY    57  55  90 SW7       29.88F
AITKIN         CLOUDY    68  63  83 S7        29.80F
PINE RIVER     RAIN      64  64 100 S5        29.82F
BRAINERD       CLOUDY    65  64  97 S10       29.81F
STAPLES        CLOUDY    57  52  82 SW5       29.82R
LONG PRAIRIE   FAIR      55  52  88 S6        29.85S
LITTLE FALLS   LGT RAIN  63  61  94 SW9       29.84R
LITCHFIELD     DRIZZLE   59  54  82 W5        29.89R
BUFFALO        RAIN      63  60  89 S9        29.89R
MAPLE LAKE     RAIN      65  64  97 S6        29.88R
HUTCHINSON     LGT RAIN  59  57  92 SW7       29.91F
$$
MNZ037-044-045-052-053-251300-
   East Central Minnesota

CITY           SKY/WX    TMP DP  RH WIND       PRES   REMARKS
PRINCETON      RAIN      66  64  94 S6        29.86F
MORA           RAIN      63  61  94 SW8G18    29.87S
CAMBRIDGE      RAIN      70  64  83 SW8       29.84F
MOOSE LAKE     DRIZZLE   64  61  88 S9        29.83F
HINCKLEY       RAIN      64  64 100 S6G16     29.85F
CLOQUET        DRIZZLE   63  61  94 SE7       29.86F
MCGREGOR       CLOUDY    64  63  94 S9        29.82F
$$
MNZ071>073-080-081-089-090-097-098-251300-
   Southwest Minnesota

CITY           SKY/WX    TMP DP  RH WIND       PRES   REMARKS
MONTEVIDEO     CLOUDY    54  52  94 W8        29.91S
GRANITE FALLS  PTCLDY    56  50  81 S8        29.92R
CANBY          CLEAR     55  48  79 SW10G18   29.90S
MARSHALL       PTCLDY    55  48  77 W15       29.92R
REDWOOD FALLS  MOCLDY    58  49  72 W8        29.92R
OLIVIA         CLOUDY    55  52  88 W12       29.90S
PIPESTONE      CLEAR     52  46  82 W10       29.96S
WINDOM         PTCLDY    55  48  76 SW8       29.96R
WORTHINGTON    CLOUDY    54  48  80 W13G18    29.98R
JACKSON        CLOUDY    55  48  76 W10       29.98R
TRACY          MOCLDY    56  50  81 W10G16    29.94R
SLAYTON        CLOUDY    52  46  82 W14       29.95F
$$
MNZ065>067-074>077-082>085-091>093-251300-
   South Central Minnesota

CITY           SKY/WX    TMP DP  RH WIND       PRES   REMARKS
MANKATO        LGT RAIN  61  60  97 SW5       29.92S
NEW ULM        CLOUDY    57  55  94 W5        29.93R
ST JAMES       CLOUDY    57  54  88 W6        29.95R
FAIRMONT       CLOUDY    61  55  82 NW13      29.95R
GLENCOE        RAIN      62  62 100 SW10G22   29.90S
FARIBAULT      CLOUDY    66  66 100 S6        29.91S
OWATONNA       CLOUDY    68  64  88 S7        29.91S
WASECA         RAIN      64  63  94 SW17G26   29.92S
ALBERT LEA     RAIN      66  66 100 S9        29.93S
$$
MNZ078>079-086>088-094>096-251300-
   Southeast Minnesota

CITY           SKY/WX    TMP DP  RH WIND       PRES   REMARKS
ROCHESTER      CLOUDY    67  67 100 S7        29.95S FOG
6HR MIN TEMP:  67; 6HR MAX TEMP:  68; 6HR PCP:  0.10;

RED WING       RAIN      68  66  94 SE5       29.89F
DODGE CENTER   CLOUDY    66  64  94 S10       29.93S FOG
WINONA         CLOUDY    70  64  83 SE6       29.93F
AUSTIN         CLOUDY    68  64  88 S8        29.93F FOG
PRESTON        CLOUDY    66  64  94 S10       29.95S FOG
$$
ABBREVIATIONS USED IN REMARKS
   TC - TEMPERATURES IN CELSIUS
  WCI - WIND CHILL INDEX
   HX - HEAT INDEX
  VSB - VISIBILITY
$$




USA.gov is the U.S. government's official web portal to all federal, state and local government web resources and services.